Location: Multiple Mirror Telescope
(31.6889°N, 110.8853°W)
Time: 11:06:32
(UTC-07:00)

Hubble Space Telescope - Pass Details

Date: 28 May 2024
Orbit: 511 x 515 km, 28.5° (Epoch: 14 June)

Event Time Altitude Azimuth Distance (km) Brightness Sun altitude
Rises 21:39:34 0° 264° (W) 2,611 4.8 -24.1°
Reaches altitude 10° 21:41:51 10° 260° (W) 1,724 3.7 -24.4°
Enters shadow 21:43:46 26° 248° (WSW) 1,025 2.3 -24.7°
